| time (UTC) | temp F | wind direction | speed MPH | gust MPH | rain 1hr in | rain 24hr in | rain mn in | humidity % | barometer mb |
| 20260506091019 | 44 | 0 | 0.0 | 0.0 | 0.00 | 0.09 | 0.00 | 97 | 1018.9 |
| 20260506090517 | 45 | 0 | 0.0 | 0.0 | 0.00 | 0.09 | 0.00 | 97 | 1018.9 |
| 20260506090040 | 44 | 0 | 0.0 | 0.0 | 0.00 | 0.09 | 0.00 | 97 | 1018.9 |
| 20260506085517 | 45 | 0 | 0.0 | 0.0 | 0.00 | 0.09 | 0.00 | 97 | 1019.1 |
| 20260506085017 | 44 | 0 | 0.0 | 0.0 | 0.00 | 0.09 | 0.00 | 97 | 1019.0 |
| 20260506084538 | 45 | 0 | 0.0 | 0.0 | 0.00 | 0.09 | 0.00 | 97 | 1019.1 |
| 20260506084020 | 44 | 0 | 0.0 | 0.0 | 0.00 | 0.09 | 0.00 | 97 | 1019.1 |
| 20260506083518 | 44 | 0 | 0.0 | 0.0 | 0.00 | 0.09 | 0.00 | 97 | 1019.2 |
| 20260506083037 | 44 | 0 | 0.0 | 0.0 | 0.00 | 0.09 | 0.00 | 97 | 1019.2 |
| 20260506082517 | 45 | 0 | 0.0 | 0.0 | 0.00 | 0.09 | 0.00 | 97 | 1019.2 |
| 20260506082018 | 45 | 0 | 0.0 | 0.0 | 0.00 | 0.09 | 0.00 | 97 | 1019.3 |
| 20260506081542 | 45 | 0 | 0.0 | 0.0 | 0.00 | 0.09 | 0.00 | 97 | 1019.3 |
| 20260506081018 | 45 | 0 | 0.0 | 0.0 | 0.00 | 0.09 | 0.00 | 97 | 1019.3 |
| 20260506080519 | 45 | 0 | 0.0 | 0.0 | 0.00 | 0.09 | 0.00 | 97 | 1019.2 |
| 20260506073521 | 45 | 0 | 0.0 | 0.0 | 0.00 | 0.10 | 0.00 | 97 | 1019.3 |
| 20260506073041 | 45 | 0 | 0.0 | 0.0 | 0.00 | 0.10 | 0.00 | 97 | 1019.3 |
| 20260506072520 | 45 | 0 | 0.0 | 0.0 | 0.00 | 0.10 | 0.00 | 97 | 1019.2 |
| 20260506072018 | 45 | 0 | 0.0 | 0.0 | 0.00 | 0.10 | 0.00 | 97 | 1019.0 |
| 20260506071535 | 45 | 0 | 0.0 | 0.0 | 0.00 | 0.10 | 0.00 | 97 | 1018.9 |
| 20260506071018 | 45 | 0 | 0.0 | 0.0 | 0.00 | 0.10 | 0.00 | 97 | 1018.9 |
| 20260506070518 | 45 | 0 | 0.0 | 0.0 | 0.00 | 0.10 | 0.00 | 97 | 1018.8 |
| 20260506062515 | 45 | 0 | 0.0 | 0.0 | 0.00 | 0.21 | 0.10 | 97 | 1018.6 |
| 20260506062017 | 45 | 0 | 0.0 | 0.0 | 0.00 | 0.21 | 0.10 | 97 | 1018.4 |
| 20260506061538 | 45 | 0 | 0.0 | 0.0 | 0.00 | 0.21 | 0.10 | 97 | 1018.4 |
| 20260506061018 | 45 | 0 | 0.0 | 0.0 | 0.00 | 0.21 | 0.10 | 97 | 1018.5 |
| 20260506060517 | 45 | 0 | 0.0 | 0.0 | 0.00 | 0.21 | 0.10 | 97 | 1018.4 |
| 20260506051020 | 45 | 0 | 0.0 | 0.0 | 0.00 | 0.24 | 0.10 | 97 | 1018.1 |
| 20260506050519 | 45 | 0 | 0.0 | 0.0 | 0.00 | 0.24 | 0.10 | 97 | 1017.9 |
| 20260506045019 | 45 | 0 | 0.0 | 0.0 | 0.00 | 0.26 | 0.10 | 97 | 1017.9 |
| 20260506044538 | 44 | 0 | 0.0 | 0.0 | 0.00 | 0.26 | 0.10 | 97 | 1018.0 |
| 20260506044020 | 44 | 0 | 0.0 | 0.0 | 0.00 | 0.26 | 0.10 | 97 | 1018.0 |
| 20260506043518 | 44 | 0 | 0.0 | 0.0 | 0.00 | 0.26 | 0.10 | 97 | 1017.8 |
| 20260506043040 | 44 | 0 | 0.0 | 0.0 | 0.00 | 0.26 | 0.10 | 97 | 1017.7 |
| 20260506042518 | 44 | 0 | 0.0 | 0.0 | 0.00 | 0.26 | 0.10 | 97 | 1017.7 |
| 20260506042019 | 44 | 0 | 0.0 | 0.0 | 0.00 | 0.26 | 0.10 | 97 | 1017.8 |
| 20260506041539 | 44 | 0 | 0.0 | 0.0 | 0.00 | 0.26 | 0.10 | 97 | 1017.7 |
| 20260506041017 | 44 | 0 | 0.0 | 0.0 | 0.00 | 0.26 | 0.10 | 97 | 1017.7 |
| 20260506040521 | 45 | 0 | 0.0 | 0.0 | 0.00 | 0.26 | 0.10 | 97 | 1017.6 |
| 20260506040035 | 45 | 0 | 0.0 | 0.0 | 0.00 | 0.26 | 0.10 | 97 | 1017.4 |
| 20260506035518 | 45 | 0 | 0.0 | 0.0 | 0.00 | 0.27 | 0.10 | 97 | 1017.3 |
| 20260506035018 | 45 | 0 | 0.0 | 0.0 | 0.00 | 0.27 | 0.10 | 97 | 1017.2 |
| 20260506034534 | 45 | 0 | 0.0 | 0.0 | 0.00 | 0.27 | 0.10 | 97 | 1017.2 |
| 20260506034017 | 45 | 0 | 0.0 | 0.0 | 0.00 | 0.27 | 0.10 | 97 | 1017.1 |
| 20260506033519 | 45 | 0 | 0.0 | 0.0 | 0.00 | 0.27 | 0.10 | 97 | 1017.1 |
| 20260506033034 | 45 | 0 | 0.0 | 0.0 | 0.00 | 0.27 | 0.10 | 97 | 1017.0 |
| 20260506032517 | 45 | 0 | 0.0 | 0.0 | 0.00 | 0.27 | 0.10 | 97 | 1016.9 |
| 20260506032017 | 45 | 0 | 0.0 | 0.0 | 0.00 | 0.27 | 0.10 | 97 | 1016.8 |
| 20260506031541 | 45 | 0 | 0.0 | 0.0 | 0.00 | 0.27 | 0.10 | 97 | 1016.7 |
| 20260506031021 | 45 | 0 | 0.0 | 0.0 | 0.00 | 0.27 | 0.10 | 97 | 1016.8 |
| 20260506030520 | 45 | 0 | 0.0 | 0.0 | 0.00 | 0.27 | 0.10 | 97 | 1016.8 |
| 20260506030039 | 45 | 0 | 0.0 | 0.0 | 0.00 | 0.27 | 0.10 | 97 | 1016.8 |
| 20260506025522 | 45 | 0 | 0.0 | 0.0 | 0.00 | 0.28 | 0.10 | 97 | 1016.8 |
| 20260506025018 | 45 | 0 | 0.0 | 0.0 | 0.00 | 0.28 | 0.10 | 97 | 1016.6 |
| 20260506024540 | 45 | 0 | 0.0 | 0.0 | 0.00 | 0.28 | 0.10 | 97 | 1016.6 |
| 20260506024018 | 45 | 0 | 0.0 | 0.0 | 0.00 | 0.28 | 0.10 | 97 | 1016.8 |
| 20260506023518 | 45 | 0 | 0.0 | 0.0 | 0.00 | 0.28 | 0.10 | 97 | 1016.8 |
| 20260506023035 | 45 | 0 | 0.0 | 0.0 | 0.00 | 0.28 | 0.10 | 97 | 1016.6 |
| 20260506022517 | 45 | 0 | 0.0 | 0.0 | 0.01 | 0.28 | 0.10 | 97 | 1016.6 |
| 20260506022017 | 45 | 0 | 0.0 | 0.0 | 0.01 | 0.28 | 0.10 | 97 | 1016.5 |
| 20260506021541 | 45 | 0 | 0.0 | 0.0 | 0.01 | 0.28 | 0.10 | 97 | 1016.6 |
| 20260506021017 | 45 | 0 | 0.0 | 0.0 | 0.01 | 0.28 | 0.10 | 97 | 1016.6 |
| 20260506020521 | 45 | 0 | 0.0 | 0.0 | 0.01 | 0.28 | 0.10 | 97 | 1016.6 |
| 20260506020048 | 45 | 0 | 0.0 | 0.0 | 0.01 | 0.28 | 0.10 | 97 | 1016.5 |
| 20260506015517 | 45 | 0 | 0.0 | 0.0 | 0.01 | 0.28 | 0.10 | 97 | 1016.4 |
| 20260506015021 | 45 | 0 | 0.0 | 0.0 | 0.01 | 0.28 | 0.10 | 97 | 1016.5 |
| 20260506014541 | 45 | 0 | 0.0 | 0.0 | 0.01 | 0.28 | 0.10 | 97 | 1016.5 |
| 20260506014018 | 45 | 0 | 0.0 | 0.0 | 0.01 | 0.28 | 0.10 | 97 | 1016.5 |
| 20260506013518 | 45 | 0 | 0.0 | 0.0 | 0.01 | 0.28 | 0.10 | 97 | 1016.3 |
| 20260506013040 | 45 | 0 | 0.0 | 0.0 | 0.01 | 0.28 | 0.10 | 97 | 1016.3 |
| 20260506012518 | 45 | 0 | 0.0 | 2.0 | 0.00 | 0.27 | 0.09 | 97 | 1016.3 |
| 20260506012018 | 45 | 0 | 0.0 | 2.0 | 0.00 | 0.27 | 0.09 | 97 | 1016.3 |
| 20260506011600 | 45 | 244 | 0.0 | 4.0 | 0.01 | 0.27 | 0.09 | 97 | 1016.2 |
| 20260506011018 | 45 | 244 | 1.0 | 4.0 | 0.01 | 0.27 | 0.09 | 97 | 1016.1 |
| 20260506010521 | 45 | 244 | 0.0 | 2.0 | 0.01 | 0.27 | 0.09 | 97 | 1016.1 |
| 20260506010048 | 45 | 244 | 0.0 | 3.0 | 0.01 | 0.27 | 0.09 | 97 | 1016.1 |
| 20260506005518 | 45 | 0 | 0.0 | 3.0 | 0.01 | 0.27 | 0.09 | 97 | 1016.1 |
| 20260506005017 | 45 | 0 | 0.0 | 2.0 | 0.01 | 0.27 | 0.09 | 97 | 1016.1 |
| 20260506004557 | 45 | 244 | 1.0 | 2.0 | 0.01 | 0.27 | 0.09 | 97 | 1016.1 |
| 20260506004017 | 45 | 244 | 1.0 | 3.0 | 0.01 | 0.27 | 0.09 | 97 | 1016.1 |
| 20260506003517 | 45 | 244 | 1.0 | 3.0 | 0.01 | 0.27 | 0.09 | 97 | 1016.0 |
| 20260506003042 | 45 | 240 | 1.0 | 3.0 | 0.01 | 0.27 | 0.09 | 97 | 1016.0 |
| 20260506002519 | 45 | 240 | 0.0 | 3.0 | 0.01 | 0.27 | 0.09 | 97 | 1015.9 |
| 20260506002017 | 45 | 240 | 1.0 | 3.0 | 0.01 | 0.27 | 0.09 | 97 | 1016.0 |
| 20260506001544 | 45 | 240 | 1.0 | 3.0 | 0.00 | 0.26 | 0.08 | 97 | 1016.0 |
| 20260506001020 | 45 | 229 | 1.0 | 2.0 | 0.00 | 0.26 | 0.08 | 97 | 1015.8 |
| 20260506000524 | 45 | 0 | 0.0 | 0.0 | 0.00 | 0.26 | 0.08 | 97 | 1015.8 |
| 20260506000109 | 45 | 0 | 0.0 | 2.0 | 0.00 | 0.26 | 0.08 | 97 | 1015.8 |
| 20260505235519 | 45 | 0 | 0.0 | 3.0 | 0.00 | 0.28 | 0.08 | 97 | 1015.8 |
| 20260505235018 | 45 | 244 | 1.0 | 3.0 | 0.00 | 0.28 | 0.08 | 97 | 1015.8 |
| 20260505234545 | 45 | 244 | 2.0 | 3.0 | 0.00 | 0.28 | 0.08 | 97 | 1015.8 |
| 20260505234018 | 45 | 233 | 1.0 | 3.0 | 0.00 | 0.28 | 0.08 | 97 | 1015.7 |
| 20260505233517 | 45 | 233 | 1.0 | 3.0 | 0.00 | 0.28 | 0.08 | 97 | 1015.7 |
| 20260505233035 | 45 | 233 | 1.0 | 3.0 | 0.00 | 0.28 | 0.08 | 97 | 1015.7 |
| 20260505232522 | 45 | 233 | 0.0 | 2.0 | 0.00 | 0.28 | 0.08 | 97 | 1015.5 |
| 20260505232019 | 45 | 0 | 0.0 | 3.0 | 0.00 | 0.28 | 0.08 | 96 | 1015.6 |
| 20260505231534 | 45 | 233 | 1.0 | 4.0 | 0.00 | 0.28 | 0.08 | 96 | 1015.7 |
| 20260505231017 | 45 | 233 | 2.0 | 4.0 | 0.00 | 0.28 | 0.08 | 97 | 1015.5 |
| 20260505230518 | 45 | 247 | 1.0 | 4.0 | 0.00 | 0.28 | 0.08 | 97 | 1015.5 |
| 20260505230051 | 45 | 240 | 1.0 | 4.0 | 0.00 | 0.28 | 0.08 | 96 | 1015.5 |
| 20260505225523 | 45 | 240 | 2.0 | 4.0 | 0.00 | 0.41 | 0.08 | 96 | 1015.5 |
| 20260505225018 | 45 | 242 | 0.0 | 2.0 | 0.00 | 0.41 | 0.08 | 96 | 1015.5 |
| 20260505224540 | 45 | 0 | 0.0 | 0.0 | 0.01 | 0.41 | 0.08 | 97 | 1015.5 |
| 20260505224017 | 45 | 0 | 0.0 | 2.0 | 0.01 | 0.41 | 0.08 | 97 | 1015.5 |
| 20260505223518 | 45 | 0 | 0.0 | 2.0 | 0.01 | 0.41 | 0.08 | 96 | 1015.5 |
| 20260505223041 | 45 | 238 | 0.0 | 3.0 | 0.01 | 0.41 | 0.08 | 97 | 1015.6 |
| 20260505222522 | 44 | 238 | 1.0 | 4.0 | 0.01 | 0.41 | 0.08 | 97 | 1015.6 |
| 20260505222018 | 44 | 238 | 1.0 | 4.0 | 0.01 | 0.41 | 0.08 | 96 | 1015.7 |
| 20260505221535 | 44 | 238 | 3.0 | 4.0 | 0.01 | 0.41 | 0.08 | 96 | 1015.7 |
| 20260505221017 | 44 | 236 | 1.0 | 4.0 | 0.01 | 0.41 | 0.08 | 96 | 1015.7 |
| 20260505220517 | 44 | 236 | 1.0 | 4.0 | 0.01 | 0.41 | 0.08 | 96 | 1015.7 |
| 20260505220039 | 45 | 254 | 1.0 | 3.0 | 0.01 | 0.41 | 0.08 | 96 | 1015.7 |
| 20260505215518 | 44 | 265 | 0.0 | 2.0 | 0.01 | 0.60 | 0.08 | 96 | 1015.7 |
| 20260505215015 | 45 | 265 | 0.0 | 2.0 | 0.01 | 0.60 | 0.08 | 96 | 1015.8 |
| 20260505214534 | 45 | 250 | 1.0 | 2.0 | 0.00 | 0.58 | 0.07 | 96 | 1015.7 |
| 20260505214019 | 44 | 0 | 0.0 | 3.0 | 0.00 | 0.58 | 0.07 | 96 | 1015.8 |
| 20260505213515 | 44 | 219 | 1.0 | 3.0 | 0.00 | 0.58 | 0.07 | 96 | 1015.8 |
| 20260505213035 | 44 | 0 | 0.0 | 3.0 | 0.00 | 0.58 | 0.07 | 96 | 1015.8 |
| 20260505212518 | 44 | 238 | 1.0 | 3.0 | 0.00 | 0.58 | 0.07 | 96 | 1015.8 |
| 20260505212018 | 44 | 238 | 0.0 | 3.0 | 0.00 | 0.58 | 0.07 | 96 | 1015.7 |
| 20260505211537 | 44 | 238 | 1.0 | 3.0 | 0.00 | 0.58 | 0.07 | 96 | 1015.7 |
| 20260505211018 | 44 | 225 | 0.0 | 3.0 | 0.00 | 0.58 | 0.07 | 96 | 1015.8 |
| 20260505210517 | 44 | 0 | 0.0 | 4.0 | 0.00 | 0.58 | 0.07 | 96 | 1015.8 |
| 20260505210035 | 44 | 242 | 2.0 | 4.0 | 0.00 | 0.58 | 0.07 | 96 | 1015.8 |
| 20260505205518 | 44 | 244 | 1.0 | 3.0 | 0.00 | 0.67 | 0.07 | 96 | 1015.7 |
| 20260505205021 | 44 | 246 | 1.0 | 3.0 | 0.00 | 0.67 | 0.07 | 96 | 1015.7 |
| 20260505204545 | 44 | 0 | 0.0 | 2.0 | 0.00 | 0.67 | 0.07 | 96 | 1015.7 |
| 20260505204019 | 44 | 0 | 0.0 | 3.0 | 0.00 | 0.67 | 0.07 | 96 | 1015.6 |
| 20260505203519 | 44 | 250 | 1.0 | 3.0 | 0.00 | 0.67 | 0.07 | 96 | 1015.5 |
| 20260505203037 | 44 | 242 | 1.0 | 5.0 | 0.00 | 0.67 | 0.07 | 96 | 1015.6 |
| 20260505202518 | 44 | 249 | 1.0 | 5.0 | 0.00 | 0.67 | 0.07 | 96 | 1015.6 |
| 20260505202018 | 44 | 238 | 2.0 | 4.0 | 0.00 | 0.67 | 0.07 | 96 | 1015.6 |
| 20260505201534 | 44 | 241 | 1.0 | 3.0 | 0.00 | 0.67 | 0.07 | 96 | 1015.6 |
| 20260505201016 | 44 | 245 | 1.0 | 3.0 | 0.00 | 0.67 | 0.07 | 96 | 1015.5 |
| 20260505200515 | 44 | 245 | 2.0 | 3.0 | 0.00 | 0.67 | 0.07 | 96 | 1015.5 |
| 20260505200039 | 44 | 206 | 0.0 | 4.0 | 0.00 | 0.67 | 0.07 | 96 | 1015.6 |
| 20260505195515 | 44 | 0 | 1.0 | 5.0 | 0.00 | 0.67 | 0.07 | 96 | 1015.5 |
| 20260505195018 | 44 | 248 | 2.0 | 5.0 | 0.00 | 0.67 | 0.07 | 96 | 1015.5 |
| 20260505194543 | 44 | 242 | 2.0 | 5.0 | 0.00 | 0.67 | 0.07 | 96 | 1015.4 |
| 20260505194019 | 44 | 245 | 2.0 | 4.0 | 0.00 | 0.67 | 0.07 | 96 | 1015.6 |
| 20260505193517 | 44 | 250 | 1.0 | 3.0 | 0.00 | 0.67 | 0.07 | 95 | 1015.5 |
| 20260505193037 | 44 | 254 | 1.0 | 3.0 | 0.00 | 0.67 | 0.07 | 96 | 1015.4 |
| 20260505192514 | 44 | 0 | 0.0 | 3.0 | 0.00 | 0.67 | 0.07 | 95 | 1015.4 |
| 20260505192017 | 44 | 231 | 1.0 | 3.0 | 0.00 | 0.67 | 0.07 | 95 | 1015.4 |
| 20260505191547 | 44 | 221 | 1.0 | 4.0 | 0.00 | 0.67 | 0.07 | 95 | 1015.4 |
| 20260505191021 | 44 | 221 | 1.0 | 4.0 | 0.00 | 0.67 | 0.07 | 95 | 1015.3 |
| 20260505190520 | 44 | 227 | 1.0 | 4.0 | 0.00 | 0.67 | 0.07 | 95 | 1015.2 |
| 20260505190038 | 44 | 237 | 2.0 | 4.0 | 0.00 | 0.67 | 0.07 | 95 | 1015.1 |
| 20260505185517 | 44 | 242 | 2.0 | 4.0 | 0.00 | 0.69 | 0.07 | 95 | 1015.2 |
| 20260505185021 | 45 | 237 | 1.0 | 4.0 | 0.00 | 0.69 | 0.07 | 95 | 1015.2 |
| 20260505184537 | 45 | 248 | 0.0 | 3.0 | 0.00 | 0.69 | 0.07 | 95 | 1015.2 |
| 20260505184017 | 44 | 253 | 0.0 | 3.0 | 0.00 | 0.69 | 0.07 | 95 | 1015.2 |
| 20260505183518 | 44 | 0 | 1.0 | 3.0 | 0.00 | 0.69 | 0.07 | 95 | 1015.2 |
| 20260505183034 | 44 | 0 | 0.0 | 3.0 | 0.00 | 0.69 | 0.07 | 95 | 1015.1 |
| 20260505182515 | 44 | 0 | 0.0 | 3.0 | 0.00 | 0.69 | 0.07 | 95 | 1015.1 |
| 20260505182018 | 44 | 247 | 1.0 | 4.0 | 0.00 | 0.69 | 0.07 | 94 | 1015.2 |
| 20260505181537 | 44 | 246 | 1.0 | 4.0 | 0.00 | 0.69 | 0.07 | 95 | 1015.0 |
| 20260505181017 | 44 | 241 | 2.0 | 4.0 | 0.00 | 0.69 | 0.07 | 95 | 1015.0 |
| 20260505180518 | 44 | 246 | 1.0 | 3.0 | 0.00 | 0.69 | 0.07 | 95 | 1014.9 |
| 20260505180045 | 44 | 246 | 0.0 | 4.0 | 0.00 | 0.69 | 0.07 | 95 | 1014.7 |
| 20260505175518 | 44 | 224 | 1.0 | 4.0 | 0.00 | 0.74 | 0.07 | 94 | 1014.8 |
| 20260505175018 | 44 | 240 | 2.0 | 5.0 | 0.00 | 0.74 | 0.07 | 94 | 1014.6 |
| 20260505174534 | 44 | 233 | 2.0 | 5.0 | 0.00 | 0.74 | 0.07 | 94 | 1014.5 |
| 20260505174018 | 45 | 251 | 1.0 | 3.0 | 0.00 | 0.74 | 0.07 | 94 | 1014.5 |
| 20260505173516 | 45 | 246 | 1.0 | 3.0 | 0.00 | 0.74 | 0.07 | 94 | 1014.5 |
| 20260505173034 | 44 | 246 | 1.0 | 3.0 | 0.00 | 0.74 | 0.07 | 94 | 1014.5 |
| 20260505172517 | 44 | 246 | 1.0 | 4.0 | 0.00 | 0.74 | 0.07 | 93 | 1014.5 |
| 20260505172015 | 45 | 256 | 1.0 | 4.0 | 0.00 | 0.74 | 0.07 | 94 | 1014.6 |
| 20260505171534 | 44 | 251 | 1.0 | 4.0 | 0.00 | 0.74 | 0.07 | 93 | 1014.5 |
| 20260505171016 | 45 | 244 | 1.0 | 4.0 | 0.00 | 0.74 | 0.07 | 94 | 1014.5 |
| 20260505170518 | 45 | 242 | 1.0 | 5.0 | 0.00 | 0.74 | 0.07 | 94 | 1014.4 |
| 20260505170039 | 45 | 202 | 1.0 | 5.0 | 0.00 | 0.74 | 0.07 | 94 | 1014.4 |
| 20260505165517 | 45 | 212 | 1.0 | 5.0 | 0.00 | 0.77 | 0.07 | 94 | 1014.5 |
| 20260505165016 | 45 | 236 | 1.0 | 4.0 | 0.00 | 0.77 | 0.07 | 93 | 1014.3 |
| 20260505164534 | 45 | 225 | 2.0 | 4.0 | 0.00 | 0.77 | 0.07 | 94 | 1014.2 |
| 20260505164018 | 45 | 246 | 3.0 | 4.0 | 0.00 | 0.77 | 0.07 | 96 | 1014.3 |
| 20260505163519 | 45 | 262 | 0.0 | 3.0 | 0.00 | 0.77 | 0.07 | 97 | 1014.2 |
| 20260505163035 | 45 | 0 | 1.0 | 4.0 | 0.00 | 0.77 | 0.07 | 97 | 1014.1 |
| 20260505162515 | 45 | 256 | 1.0 | 5.0 | 0.00 | 0.77 | 0.07 | 97 | 1014.1 |
| 20260505162019 | 44 | 239 | 2.0 | 5.0 | 0.00 | 0.77 | 0.07 | 97 | 1014.1 |
| 20260505161535 | 44 | 237 | 2.0 | 5.0 | 0.00 | 0.77 | 0.07 | 97 | 1014.1 |
| 20260505161017 | 43 | 0 | 0.0 | 0.0 | 0.00 | 0.77 | 0.07 | 97 | 1014.0 |
| 20260505160517 | 43 | 0 | 0.0 | 0.0 | 0.00 | 0.77 | 0.07 | 97 | 1014.0 |
| 20260505153036 | 41 | 0 | 0.0 | 0.0 | 0.00 | 0.78 | 0.07 | 97 | 1014.2 |
| 20260505152518 | 41 | 0 | 0.0 | 0.0 | 0.00 | 0.78 | 0.07 | 97 | 1014.2 |
| 20260505152021 | 41 | 0 | 0.0 | 0.0 | 0.00 | 0.78 | 0.07 | 97 | 1014.2 |
| 20260505151536 | 41 | 0 | 0.0 | 0.0 | 0.00 | 0.78 | 0.07 | 97 | 1014.1 |
| 20260505151021 | 41 | 0 | 0.0 | 0.0 | 0.00 | 0.78 | 0.07 | 97 | 1014.2 |
| 20260505150520 | 41 | 0 | 0.0 | 0.0 | 0.00 | 0.78 | 0.07 | 96 | 1014.2 |
| 20260505140518 | 39 | 0 | 0.0 | 0.0 | 0.00 | 0.78 | 0.07 | 96 | 1013.7 |
| 20260505125018 | 39 | 0 | 0.0 | 0.0 | 0.01 | 0.82 | 0.07 | 96 | 1013.5 |
| 20260505124550 | 39 | 0 | 0.0 | 0.0 | 0.01 | 0.82 | 0.07 | 96 | 1013.6 |
| 20260505124018 | 39 | 0 | 0.0 | 0.0 | 0.01 | 0.82 | 0.07 | 96 | 1013.5 |
| 20260505123518 | 39 | 0 | 0.0 | 0.0 | 0.01 | 0.82 | 0.07 | 96 | 1013.4 |
| 20260505123049 | 39 | 0 | 0.0 | 0.0 | 0.02 | 0.82 | 0.07 | 96 | 1013.4 |
| 20260505122518 | 39 | 0 | 0.0 | 0.0 | 0.02 | 0.82 | 0.07 | 96 | 1013.2 |
| 20260505122018 | 39 | 0 | 0.0 | 0.0 | 0.02 | 0.82 | 0.07 | 96 | 1013.3 |
| 20260505121616 | 39 | 0 | 0.0 | 0.0 | 0.02 | 0.82 | 0.07 | 96 | 1013.4 |
| 20260505121021 | 39 | 0 | 0.0 | 0.0 | 0.02 | 0.82 | 0.07 | 96 | 1013.3 |
| 20260505120518 | 39 | 0 | 0.0 | 0.0 | 0.02 | 0.82 | 0.07 | 96 | 1013.2 |
| 20260505120042 | 39 | 0 | 0.0 | 0.0 | 0.02 | 0.81 | 0.06 | 96 | 1013.3 |
| 20260505115517 | 39 | 0 | 0.0 | 0.0 | 0.02 | 0.81 | 0.06 | 96 | 1013.3 |
| 20260505115018 | 39 | 0 | 0.0 | 0.0 | 0.02 | 0.81 | 0.06 | 96 | 1013.3 |
| 20260505114541 | 39 | 0 | 0.0 | 0.0 | 0.02 | 0.81 | 0.06 | 96 | 1013.3 |
| 20260505114017 | 39 | 0 | 0.0 | 0.0 | 0.02 | 0.81 | 0.06 | 96 | 1013.3 |
| 20260505113518 | 39 | 0 | 0.0 | 0.0 | 0.03 | 0.81 | 0.06 | 96 | 1013.2 |
| 20260505113046 | 39 | 0 | 0.0 | 0.0 | 0.02 | 0.80 | 0.05 | 96 | 1013.1 |
| 20260505112518 | 39 | 0 | 0.0 | 0.0 | 0.02 | 0.80 | 0.05 | 96 | 1013.3 |
| 20260505112018 | 39 | 0 | 0.0 | 0.0 | 0.02 | 0.80 | 0.05 | 96 | 1013.3 |
| 20260505111539 | 39 | 0 | 0.0 | 0.0 | 0.02 | 0.80 | 0.05 | 96 | 1013.3 |
| 20260505111018 | 39 | 0 | 0.0 | 0.0 | 0.03 | 0.80 | 0.05 | 96 | 1013.3 |
| 20260505110518 | 39 | 0 | 0.0 | 0.0 | 0.03 | 0.80 | 0.05 | 96 | 1013.4 |
| 20260505102019 | 39 | 0 | 0.0 | 0.0 | 0.02 | 0.78 | 0.03 | 96 | 1013.4 |
| 20260505101540 | 39 | 0 | 0.0 | 0.0 | 0.02 | 0.78 | 0.03 | 96 | 1013.5 |
| 20260505101018 | 39 | 0 | 0.0 | 0.0 | 0.01 | 0.77 | 0.02 | 96 | 1013.7 |
| 20260505100518 | 39 | 0 | 0.0 | 0.0 | 0.01 | 0.77 | 0.02 | 96 | 1013.7 |
| 20260505100043 | 40 | 0 | 0.0 | 0.0 | 0.01 | 0.77 | 0.02 | 96 | 1013.8 |
| 20260505095519 | 40 | 0 | 0.0 | 0.0 | 0.01 | 0.77 | 0.02 | 96 | 1013.9 |
| 20260505095019 | 40 | 0 | 0.0 | 0.0 | 0.01 | 0.77 | 0.02 | 96 | 1014.0 |
| 20260505094536 | 40 | 0 | 0.0 | 0.0 | 0.01 | 0.77 | 0.02 | 96 | 1014.1 |
| 20260505094018 | 40 | 0 | 0.0 | 0.0 | 0.01 | 0.77 | 0.02 | 96 | 1014.0 |
| 20260505093517 | 40 | 0 | 0.0 | 0.0 | 0.00 | 0.76 | 0.01 | 96 | 1014.0 |
| 20260505093040 | 40 | 0 | 0.0 | 0.0 | 0.00 | 0.76 | 0.01 | 96 | 1014.0 |
| 20260505092517 | 40 | 0 | 0.0 | 0.0 | 0.00 | 0.76 | 0.01 | 96 | 1014.0 |
| 20260505092018 | 40 | 0 | 0.0 | 0.0 | 0.00 | 0.76 | 0.01 | 96 | 1014.1 |
| 20260505091549 | 40 | 0 | 0.0 | 0.0 | 0.00 | 0.76 | 0.01 | 96 | 1014.2 |